Torna al catalogo

QIANFAN-215

AttivoComunicazioniPO
NORAD 69814·PAYLOAD·🇨🇳 China

Lanciato Jul 4, 2026 da Taiyuan Satellite Launch Center

Loading…

Prossimi Passaggi (prossime 24 ore)

TLE

AggiornatoSource: Space-Track

Epoca: Sep 14, 2026, 13:17 UTC

1 69814U 26153Q   26257.55369579 -.01861599  00000-0 -10705+1 0  9990
2 69814  88.9972 352.0137 0006015  64.3545 295.8262 14.13053302 10279

Traccia QIANFAN-215 in tempo reale con AllMySat

Download on the App Store